Ulladulla Observation History
Time Wind Speed Temp Pressure Rel. Hum Rain
04/04:00am SW 8-14 kts 10.6°c 1030.8 hPa 49% n/a
04/03:30am SW 8-13 kts 11.1°c 1030.7 hPa 49% n/a
04/03:00am SW 7-10 kts 10.8°c 1030.9 hPa 52% 0.0mm
04/02:30am SW 6-10 kts 10.1°c 1030.8 hPa 55% n/a
04/02:00am SW 6-10 kts 10.3°c 1030.8 hPa 55% n/a
04/01:30am SW 7-11 kts 10.5°c 1030.6 hPa 55% n/a
04/01:00am SW 8-14 kts 10.7°c 1030.5 hPa 56% n/a
04/12:30am SW 9-15 kts 10.8°c 1030.6 hPa 56% n/a
04/12:00am SW 11-18 kts 11.3°c 1030.6 hPa 55% n/a
Time Wind Speed Temp Pressure Rel. Hum Rain
03/11:30pm SW 9-15 kts 11.2°c 1030.6 hPa 56% n/a
03/11:00pm SW 9-14 kts 11.5°c 1030.5 hPa 57% n/a
03/10:30pm S 15-24 kts 13.3°c 1030.2 hPa 56% n/a
03/10:13pm S 16-26 kts 13.3°c 1030.2 hPa 54% n/a
03/10:00pm S 19-27 kts 13.4°c 1030.0 hPa 54% n/a
03/09:30pm S 18-28 kts 13.6°c 1029.8 hPa 57% n/a
03/09:02pm S 20-30 kts 13.9°c 1029.5 hPa 55% n/a
03/09:00pm S 19-28 kts 13.9°c 1029.5 hPa 55% 0.0mm
03/08:30pm S 28-34 kts 14.1°c 1029.1 hPa 48% n/a
03/08:00pm S 26-34 kts 14.3°c 1028.9 hPa 51% n/a
03/07:30pm S 24-33 kts 14.4°c 1028.3 hPa 53% n/a
03/07:10pm S 23-34 kts 14.3°c 1027.9 hPa 56% n/a
03/07:00pm S 25-33 kts 14.3°c 1027.8 hPa 57% n/a
03/06:30pm S 23-32 kts 14.3°c 1027.4 hPa 57% n/a
03/06:00pm S 22-29 kts 14.3°c 1027.0 hPa 53% n/a
03/05:30pm S 21-27 kts 14.6°c 1026.3 hPa 58% n/a
03/05:00pm S 20-28 kts 14.3°c 1026.1 hPa 61% n/a
03/04:30pm S 18-26 kts 14.2°c 1025.8 hPa 63% n/a
03/04:00pm S 19-25 kts 15.2°c 1025.3 hPa 48% n/a
03/03:30pm S 17-22 kts 15.1°c 1024.9 hPa 47% n/a
03/03:00pm S 16-23 kts 15.4°c 1024.3 hPa 49% n/a
03/02:30pm S 16-20 kts 15.5°c 1023.9 hPa 46% n/a
03/02:00pm S 14-19 kts 15.5°c 1023.7 hPa 48% n/a
03/01:30pm S 11-15 kts 15.9°c 1023.4 hPa 41% n/a
03/01:00pm S 12-17 kts 15.8°c 1023.2 hPa 44% n/a
03/12:30pm S 12-18 kts 16.2°c 1023.3 hPa 39% n/a
03/12:00pm SSW 10-15 kts 16.0°c 1023.1 hPa 37% n/a
03/11:30am SSW 11-17 kts 15.8°c 1023.2 hPa 37% n/a
03/11:00am SSW 13-18 kts 15.6°c 1023.0 hPa 37% 0.0mm
03/10:30am SSW 11-18 kts 15.5°c 1022.9 hPa 37% 0.0mm
03/10:00am SW 7-14 kts 15.4°c 1022.9 hPa 43% 0.0mm
03/09:30am SW 8-11 kts 14.6°c 1022.2 hPa 47% 0.0mm
03/09:00am WSW 8-16 kts 14.3°c 1021.9 hPa 46% 0.0mm
03/08:30am WSW 7-11 kts 13.8°c 1021.4 hPa 49% 0.0mm
03/08:00am WSW 7-11 kts 12.8°c 1020.7 hPa 52% 0.0mm
03/07:30am W 6-11 kts 12.6°c 1019.9 hPa 52% 0.0mm
03/07:00am WSW 4-8 kts 11.0°c 1019.0 hPa 56% 0.0mm
03/06:30am WSW 6-11 kts 10.6°c 1018.3 hPa 58% 0.0mm
03/06:00am WSW 3-5 kts 10.0°c 1018.0 hPa 57% 0.0mm
03/05:30am WNW 3-7 kts 10.9°c 1017.2 hPa 55% 0.0mm
03/05:00am WNW 4-6 kts 10.9°c 1016.7 hPa 54% 0.0mm
03/04:30am WNW 6-9 kts 11.4°c 1016.2 hPa 53% 0.0mm
03/04:00am NW 9-15 kts 11.8°c 1015.9 hPa 52% 0.0mm
03/03:30am WNW 7-15 kts 12.2°c 1016.6 hPa 50% 0.0mm
03/03:00am WNW 6-12 kts 11.8°c 1016.6 hPa 52% 0.0mm
03/02:30am NW 7-11 kts 11.5°c 1016.4 hPa 53% 0.0mm
03/02:00am WNW 7-11 kts 11.5°c 1016.1 hPa 53% 0.0mm
03/01:30am WNW 7-13 kts 11.5°c 1016.1 hPa 52% 0.0mm
03/01:00am WNW 7-13 kts 11.4°c 1015.9 hPa 52% 0.0mm
03/12:30am WNW 8-13 kts 11.5°c 1016.0 hPa 51% 0.0mm
03/12:00am WNW 8-12 kts 11.6°c 1016.2 hPa 51% 0.0mm
Time Wind Speed Temp Pressure Rel. Hum Rain
02/11:30pm WNW 7-13 kts 11.3°c 1015.9 hPa 52% 0.0mm
02/11:00pm WNW 8-14 kts 11.4°c 1015.8 hPa 52% 0.0mm
02/10:30pm WNW 6-11 kts 11.4°c 1015.9 hPa 53% 0.0mm
02/10:00pm WNW 7-14 kts 11.3°c 1016.0 hPa 53% 0.0mm
02/09:30pm WNW 5-11 kts 11.1°c 1016.3 hPa 55% 0.0mm
02/09:00pm WNW 5-9 kts 11.2°c 1016.1 hPa 55% 0.0mm
02/08:30pm WNW 4-9 kts 10.9°c 1016.4 hPa 58% 0.0mm
02/08:00pm W 3-7 kts 10.4°c 1016.2 hPa 60% 0.0mm
02/07:30pm W 1-3 kts 10.3°c 1016.2 hPa 59% 0.0mm
02/07:00pm WSW 6-11 kts 11.5°c 1015.9 hPa 55% 0.0mm
02/06:30pm WNW 7-12 kts 12.1°c 1015.9 hPa 55% 0.0mm
02/06:00pm W 5-11 kts 11.9°c 1015.9 hPa 61% 0.0mm
02/05:30pm W 4-7 kts 11.4°c 1015.5 hPa 61% 0.0mm
02/05:00pm WSW 3 kts 12.5°c 1015.0 hPa 56% 0.0mm
02/04:30pm SW 2-3 kts 14.5°c 1014.8 hPa 52% 0.0mm
02/04:00pm S 6-8 kts 14.5°c 1014.7 hPa 51% 0.0mm
02/03:30pm S 6-9 kts 14.8°c 1014.5 hPa 49% 0.0mm
02/03:00pm S 7-10 kts 14.9°c 1014.4 hPa 50% 0.0mm
02/02:30pm S 6-10 kts 15.2°c 1014.1 hPa 50% 0.0mm
02/02:00pm S 9-12 kts 15.1°c 1014.2 hPa 49% 0.0mm
02/01:30pm S 11-16 kts 14.9°c 1014.2 hPa 50% 0.0mm
02/01:00pm S 11-14 kts 15.1°c 1014.1 hPa 51% 0.0mm
02/12:30pm S 10-14 kts 14.9°c 1014.2 hPa 46% 0.0mm
02/12:00pm S 8-12 kts 15.1°c 1014.4 hPa 46% 0.0mm
02/11:30am SSW 8-12 kts 15.0°c 1014.5 hPa 47% 0.0mm
02/11:00am S 9-13 kts 14.4°c 1014.6 hPa 50% 0.0mm
02/10:30am SSW 8-13 kts 14.5°c 1014.3 hPa 49% 0.0mm
02/10:00am SW 7-11 kts 14.1°c 1014.2 hPa 49% 0.0mm
02/09:30am SW 6-10 kts 12.9°c 1014.1 hPa 49% 0.0mm
02/09:00am SW 5-8 kts 12.3°c 1013.9 hPa 52% 1.6mm
02/08:30am WSW 6-10 kts 11.2°c 1013.5 hPa 54% 1.6mm
02/08:00am W 4-6 kts 9.7°c 1013.3 hPa 61% 1.6mm
02/07:30am W 5-8 kts 8.8°c 1013.2 hPa 62% 1.6mm
02/07:00am W 5-8 kts 9.1°c 1013.1 hPa 60% 1.6mm
02/06:30am W 5-8 kts 9.7°c 1012.7 hPa 58% 1.6mm
02/06:00am W 4-6 kts 9.7°c 1012.2 hPa 57% 1.6mm
02/05:30am WNW 4-8 kts 10.2°c 1011.8 hPa 57% 1.6mm
02/05:00am WNW 6-10 kts 10.2°c 1011.5 hPa 56% 1.6mm
02/04:30am WNW 6-10 kts 9.8°c 1011.1 hPa 59% 1.6mm
02/04:00am NW 8-11 kts 9.6°c 1010.9 hPa 61% 1.6mm
02/03:30am WNW 5-7 kts 8.9°c 1011.3 hPa 66% 1.4mm
02/03:00am WSW 5-10 kts 9.2°c 1011.1 hPa 63% 0.8mm
02/02:30am W 6-13 kts 10.6°c 1010.6 hPa 49% 0.0mm
02/02:00am W 6-12 kts 10.4°c 1010.5 hPa 49% 0.0mm
02/01:30am WNW 6-12 kts 10.3°c 1010.3 hPa 49% 0.0mm
02/01:00am W 7-11 kts 10.4°c 1010.1 hPa 49% 0.0mm
02/12:30am WNW 8-14 kts 10.5°c 1010.0 hPa 49% 0.0mm
02/12:00am WNW 8-14 kts 10.4°c 1009.9 hPa 49% 0.0mm